| time (UTC) | temp C | wind direction | speed KPH | gust KPH | rain 1hr cm | rain 24hr cm | rain mn cm | humidity % | barometer mb |
| 20260905224318 | 20 | 304 | 0.0 | 0.0 | 0.00 | 0.00 | 0.00 | 61 | 1016.6 |
| 20260905223812 | 21 | 316 | 3.2 | 3.2 | 0.00 | 0.00 | 0.00 | 59 | 1016.6 |
| 20260905223310 | 21 | 282 | 1.6 | 1.6 | 0.00 | 0.00 | 0.00 | 57 | 1016.6 |
| 20260905222805 | 20 | 304 | 0.0 | 0.0 | 0.00 | 0.00 | 0.00 | 62 | 1016.6 |
| 20260905222306 | 21 | 310 | 4.8 | 4.8 | 0.00 | 0.00 | 0.00 | 57 | 1016.7 |
| 20260905221800 | 21 | 322 | 4.8 | 8.0 | 0.00 | 0.00 | 0.00 | 58 | 1016.7 |
| 20260905221256 | 20 | 99 | 1.6 | 1.6 | 0.00 | 0.00 | 0.00 | 61 | 1016.7 |
| 20260905220752 | 20 | 317 | 1.6 | 1.6 | 0.00 | 0.00 | 0.00 | 60 | 1016.8 |
| 20260905220248 | 20 | 309 | 0.0 | 0.0 | 0.00 | 0.00 | 0.00 | 61 | 1016.9 |
| 20260905215747 | 20 | 304 | 3.2 | 3.2 | 0.00 | 0.00 | 0.00 | 60 | 1016.8 |
| 20260905215243 | 21 | 308 | 1.6 | 1.6 | 0.00 | 0.00 | 0.00 | 58 | 1016.9 |
| 20260905214739 | 21 | 297 | 3.2 | 3.2 | 0.00 | 0.00 | 0.00 | 58 | 1016.8 |
| 20260905214235 | 21 | 311 | 0.0 | 0.0 | 0.00 | 0.00 | 0.00 | 58 | 1016.8 |
| 20260905213730 | 22 | 305 | 0.0 | 1.6 | 0.00 | 0.00 | 0.00 | 60 | 1016.9 |
| 20260905213226 | 21 | 341 | 0.0 | 1.6 | 0.00 | 0.00 | 0.00 | 60 | 1017.0 |
| 20260905212721 | 21 | 312 | 1.6 | 1.6 | 0.00 | 0.00 | 0.00 | 58 | 1017.0 |
| 20260905212219 | 21 | 312 | 1.6 | 1.6 | 0.00 | 0.00 | 0.00 | 59 | 1016.9 |
| 20260905211714 | 21 | 311 | 0.0 | 0.0 | 0.00 | 0.00 | 0.00 | 60 | 1016.9 |
| 20260905211209 | 20 | 303 | 1.6 | 3.2 | 0.00 | 0.00 | 0.00 | 62 | 1017.0 |
| 20260905210706 | 20 | 307 | 1.6 | 1.6 | 0.00 | 0.00 | 0.00 | 62 | 1017.0 |
| 20260905210206 | 21 | 319 | 3.2 | 3.2 | 0.00 | 0.00 | 0.00 | 61 | 1017.0 |
| 20260905205705 | 21 | 300 | 0.0 | 1.6 | 0.00 | 0.00 | 0.00 | 59 | 1017.0 |
| 20260905205205 | 22 | 222 | 3.2 | 3.2 | 0.00 | 0.00 | 0.00 | 58 | 1017.2 |
| 20260905204705 | 22 | 336 | 1.6 | 1.6 | 0.00 | 0.00 | 0.00 | 56 | 1017.1 |
| 20260905204200 | 21 | 314 | 1.6 | 1.6 | 0.00 | 0.00 | 0.00 | 61 | 1017.2 |
| 20260905203654 | 20 | 320 | 0.0 | 0.0 | 0.00 | 0.00 | 0.00 | 61 | 1017.2 |
| 20260905203150 | 20 | 315 | 0.0 | 0.0 | 0.00 | 0.00 | 0.00 | 63 | 1017.2 |
| 20260905202645 | 20 | 303 | 3.2 | 4.8 | 0.00 | 0.00 | 0.00 | 63 | 1017.4 |
| 20260905202140 | 20 | 297 | 1.6 | 1.6 | 0.00 | 0.00 | 0.00 | 65 | 1017.4 |
| 20260905201635 | 20 | 320 | 0.0 | 1.6 | 0.00 | 0.00 | 0.00 | 65 | 1017.2 |
| 20260905201130 | 20 | 297 | 1.6 | 3.2 | 0.00 | 0.00 | 0.00 | 63 | 1017.4 |
| 20260905200626 | 20 | 307 | 0.0 | 0.0 | 0.00 | 0.00 | 0.00 | 64 | 1017.3 |
| 20260905200121 | 20 | 313 | 0.0 | 1.6 | 0.00 | 0.00 | 0.00 | 65 | 1017.5 |
| 20260905195619 | 19 | 311 | 4.8 | 4.8 | 0.00 | 0.00 | 0.00 | 65 | 1017.3 |
| 20260905195115 | 19 | 304 | 1.6 | 1.6 | 0.00 | 0.00 | 0.00 | 67 | 1017.5 |
| 20260905194615 | 19 | 309 | 3.2 | 3.2 | 0.00 | 0.00 | 0.00 | 67 | 1017.4 |
| 20260905194114 | 19 | 308 | 0.0 | 0.0 | 0.00 | 0.00 | 0.00 | 67 | 1017.4 |
| 20260905193609 | 20 | 129 | 4.8 | 4.8 | 0.00 | 0.00 | 0.00 | 67 | 1017.5 |
| 20260905193104 | 19 | 309 | 0.0 | 1.6 | 0.00 | 0.00 | 0.00 | 68 | 1017.7 |
| 20260905192600 | 20 | 271 | 1.6 | 1.6 | 0.00 | 0.00 | 0.00 | 68 | 1017.6 |
| 20260905192055 | 20 | 285 | 1.6 | 1.6 | 0.00 | 0.00 | 0.00 | 68 | 1017.8 |
| 20260905191553 | 20 | 289 | 3.2 | 3.2 | 0.00 | 0.00 | 0.00 | 68 | 1017.8 |
| 20260905191048 | 20 | 49 | 1.6 | 3.2 | 0.00 | 0.00 | 0.00 | 67 | 1017.6 |
| 20260905190546 | 18 | 306 | 1.6 | 1.6 | 0.00 | 0.00 | 0.00 | 71 | 1017.9 |
| 20260905190045 | 18 | 304 | 0.0 | 1.6 | 0.00 | 0.00 | 0.00 | 71 | 1017.8 |
| 20260905185545 | 19 | 146 | 4.8 | 4.8 | 0.00 | 0.00 | 0.00 | 69 | 1017.9 |
| 20260905185044 | 18 | 318 | 1.6 | 1.6 | 0.00 | 0.00 | 0.00 | 75 | 1017.8 |
| 20260905184539 | 18 | 300 | 1.6 | 1.6 | 0.00 | 0.00 | 0.00 | 70 | 1017.8 |
| 20260905184038 | 19 | 304 | 1.6 | 1.6 | 0.00 | 0.00 | 0.00 | 71 | 1018.0 |
| 20260905183538 | 20 | 96 | 4.8 | 4.8 | 0.00 | 0.00 | 0.00 | 68 | 1018.2 |
| 20260905183033 | 20 | 302 | 0.0 | 0.0 | 0.00 | 0.00 | 0.00 | 70 | 1018.3 |
| 20260905182532 | 19 | 284 | 0.0 | 1.6 | 0.00 | 0.00 | 0.00 | 72 | 1018.0 |
| 20260905182027 | 18 | 318 | 1.6 | 3.2 | 0.00 | 0.00 | 0.00 | 72 | 1018.1 |
| 20260905181522 | 18 | 317 | 0.0 | 1.6 | 0.00 | 0.00 | 0.00 | 73 | 1018.3 |
| 20260905181021 | 18 | 296 | 0.0 | 0.0 | 0.00 | 0.00 | 0.00 | 77 | 1018.1 |
| 20260905180516 | 17 | 318 | 4.8 | 4.8 | 0.00 | 0.00 | 0.00 | 75 | 1018.0 |
| 20260905180012 | 18 | 296 | 1.6 | 1.6 | 0.00 | 0.00 | 0.00 | 75 | 1018.4 |
| 20260905175510 | 17 | 310 | 0.0 | 1.6 | 0.00 | 0.00 | 0.00 | 79 | 1018.3 |
| 20260905175006 | 16 | 315 | 0.0 | 0.0 | 0.00 | 0.00 | 0.00 | 80 | 1018.3 |
| 20260905174502 | 17 | 347 | 1.6 | 1.6 | 0.00 | 0.00 | 0.00 | 78 | 1018.2 |
| 20260905173957 | 17 | 301 | 1.6 | 1.6 | 0.00 | 0.00 | 0.00 | 77 | 1018.2 |
| 20260905173453 | 17 | 64 | 3.2 | 3.2 | 0.00 | 0.00 | 0.00 | 76 | 1018.2 |
| 20260905172949 | 17 | 303 | 0.0 | 1.6 | 0.00 | 0.00 | 0.00 | 80 | 1018.3 |
| 20260905172447 | 16 | 305 | 3.2 | 3.2 | 0.00 | 0.00 | 0.00 | 81 | 1018.3 |
| 20260905171942 | 16 | 305 | 0.0 | 1.6 | 0.00 | 0.00 | 0.00 | 85 | 1018.4 |
| 20260905171439 | 15 | 305 | 0.0 | 0.0 | 0.00 | 0.00 | 0.00 | 85 | 1018.2 |
| 20260905170935 | 15 | 303 | 1.6 | 1.6 | 0.00 | 0.00 | 0.00 | 87 | 1018.2 |
| 20260905170431 | 15 | 312 | 1.6 | 1.6 | 0.00 | 0.00 | 0.00 | 88 | 1018.3 |
| 20260905165930 | 15 | 313 | 1.6 | 1.6 | 0.00 | 0.00 | 0.00 | 87 | 1018.4 |
| 20260905165425 | 15 | 311 | 1.6 | 3.2 | 0.00 | 0.00 | 0.00 | 89 | 1018.5 |
| 20260905164921 | 15 | 286 | 1.6 | 1.6 | 0.00 | 0.00 | 0.00 | 91 | 1018.3 |
| 20260905164420 | 15 | 306 | 3.2 | 3.2 | 0.00 | 0.00 | 0.00 | 92 | 1018.5 |
| 20260905163915 | 14 | 312 | 0.0 | 1.6 | 0.00 | 0.00 | 0.00 | 95 | 1018.2 |
| 20260905163412 | 14 | 310 | 3.2 | 3.2 | 0.00 | 0.00 | 0.00 | 98 | 1018.4 |
| 20260905162908 | 13 | 293 | 1.6 | 1.6 | 0.00 | 0.00 | 0.00 | 99 | 1018.4 |
| 20260905162402 | 13 | 308 | 0.0 | 0.0 | 0.00 | 0.00 | 0.00 | 99 | 1018.5 |
| 20260905161857 | 14 | 302 | 1.6 | 1.6 | 0.00 | 0.00 | 0.00 | 99 | 1018.3 |
| 20260905161356 | 14 | 307 | 1.6 | 1.6 | 0.00 | 0.00 | 0.00 | 99 | 1018.4 |
| 20260905160854 | 13 | 304 | 0.0 | 0.0 | 0.00 | 0.00 | 0.00 | 99 | 1018.7 |
| 20260905160349 | 13 | 310 | 1.6 | 1.6 | 0.00 | 0.00 | 0.00 | 99 | 1018.3 |
| 20260905155843 | 13 | 329 | 0.0 | 0.0 | 0.00 | 0.00 | 0.00 | 99 | 1018.5 |
| 20260905155337 | 13 | 329 | 0.0 | 0.0 | 0.00 | 0.00 | 0.00 | 99 | 1018.4 |
| 20260905154836 | 13 | 329 | 0.0 | 0.0 | 0.00 | 0.00 | 0.00 | 99 | 1018.4 |
| 20260905154332 | 13 | 328 | 0.0 | 0.0 | 0.00 | 0.00 | 0.00 | 99 | 1018.6 |
| 20260905153827 | 13 | 328 | 1.6 | 1.6 | 0.00 | 0.00 | 0.00 | 99 | 1018.4 |
| 20260905153324 | 13 | 330 | 0.0 | 0.0 | 0.00 | 0.00 | 0.00 | 99 | 1018.6 |
| 20260905152824 | 13 | 330 | 0.0 | 0.0 | 0.00 | 0.00 | 0.00 | 99 | 1018.4 |
| 20260905152322 | 13 | 330 | 0.0 | 0.0 | 0.00 | 0.00 | 0.00 | 99 | 1018.4 |
| 20260905151818 | 12 | 330 | 0.0 | 0.0 | 0.00 | 0.00 | 0.00 | 99 | 1018.6 |
| 20260905151314 | 12 | 330 | 0.0 | 0.0 | 0.00 | 0.00 | 0.00 | 99 | 1018.4 |
| 20260905150813 | 12 | 330 | 0.0 | 0.0 | 0.00 | 0.00 | 0.00 | 99 | 1018.4 |
| 20260905150308 | 12 | 330 | 0.0 | 0.0 | 0.00 | 0.00 | 0.00 | 99 | 1018.6 |
| 20260905145805 | 12 | 330 | 0.0 | 0.0 | 0.00 | 0.00 | 0.00 | 99 | 1018.4 |
| 20260905145259 | 12 | 330 | 0.0 | 0.0 | 0.00 | 0.00 | 0.00 | 99 | 1018.5 |
| 20260905144758 | 12 | 330 | 0.0 | 0.0 | 0.00 | 0.00 | 0.00 | 99 | 1018.3 |
| 20260905144254 | 12 | 330 | 0.0 | 0.0 | 0.00 | 0.00 | 0.00 | 99 | 1018.4 |
| 20260905143752 | 12 | 330 | 0.0 | 0.0 | 0.00 | 0.00 | 0.00 | 99 | 1018.3 |
| 20260905143247 | 11 | 330 | 0.0 | 0.0 | 0.00 | 0.00 | 0.00 | 99 | 1018.4 |
| 20260905142745 | 11 | 330 | 0.0 | 0.0 | 0.00 | 0.00 | 0.00 | 99 | 1018.4 |
| 20260905142240 | 11 | 330 | 0.0 | 0.0 | 0.00 | 0.00 | 0.00 | 99 | 1018.5 |
| 20260905141736 | 11 | 330 | 0.0 | 0.0 | 0.00 | 0.00 | 0.00 | 99 | 1018.4 |
| 20260905141231 | 11 | 330 | 0.0 | 0.0 | 0.00 | 0.00 | 0.00 | 99 | 1018.3 |
| 20260905140721 | 11 | 330 | 0.0 | 0.0 | 0.00 | 0.00 | 0.00 | 99 | 1018.4 |
| 20260905140220 | 11 | 330 | 0.0 | 0.0 | 0.00 | 0.00 | 0.00 | 99 | 1018.1 |
| 20260905135715 | 11 | 330 | 1.6 | 1.6 | 0.00 | 0.00 | 0.00 | 99 | 1018.2 |
| 20260905135211 | 11 | 330 | 0.0 | 0.0 | 0.00 | 0.00 | 0.00 | 99 | 1018.2 |
| 20260905134710 | 11 | 330 | 0.0 | 0.0 | 0.00 | 0.00 | 0.00 | 99 | 1018.3 |
| 20260905134210 | 11 | 330 | 0.0 | 0.0 | 0.00 | 0.00 | 0.00 | 99 | 1018.2 |
| 20260905133705 | 11 | 330 | 0.0 | 0.0 | 0.00 | 0.00 | 0.00 | 99 | 1018.2 |
| 20260905133200 | 11 | 330 | 0.0 | 0.0 | 0.00 | 0.00 | 0.00 | 99 | 1018.0 |
| 20260905132659 | 11 | 330 | 0.0 | 0.0 | 0.00 | 0.00 | 0.00 | 99 | 1018.2 |
| 20260905132154 | 11 | 330 | 0.0 | 0.0 | 0.00 | 0.00 | 0.00 | 99 | 1018.0 |
| 20260905131649 | 11 | 330 | 0.0 | 0.0 | 0.00 | 0.00 | 0.00 | 99 | 1018.0 |
| 20260905131144 | 11 | 330 | 0.0 | 0.0 | 0.00 | 0.00 | 0.00 | 99 | 1018.1 |
| 20260905130639 | 11 | 330 | 0.0 | 0.0 | 0.00 | 0.00 | 0.00 | 99 | 1017.9 |
| 20260905130138 | 12 | 330 | 0.0 | 0.0 | 0.00 | 0.00 | 0.00 | 99 | 1017.9 |
| 20260905125632 | 12 | 330 | 0.0 | 1.6 | 0.00 | 0.00 | 0.00 | 99 | 1017.9 |
| 20260905125128 | 11 | 330 | 0.0 | 0.0 | 0.00 | 0.00 | 0.00 | 99 | 1017.7 |
| 20260905124625 | 11 | 330 | 0.0 | 0.0 | 0.00 | 0.00 | 0.00 | 99 | 1017.6 |
| 20260905124121 | 11 | 330 | 0.0 | 0.0 | 0.00 | 0.00 | 0.00 | 99 | 1017.7 |
| 20260905123615 | 11 | 330 | 0.0 | 0.0 | 0.00 | 0.00 | 0.00 | 99 | 1017.9 |
| 20260905123113 | 11 | 330 | 0.0 | 0.0 | 0.00 | 0.00 | 0.00 | 99 | 1017.8 |
| 20260905122607 | 11 | 330 | 0.0 | 0.0 | 0.00 | 0.00 | 0.00 | 99 | 1017.9 |
| 20260905122107 | 12 | 330 | 0.0 | 0.0 | 0.00 | 0.00 | 0.00 | 99 | 1017.9 |
| 20260905121601 | 12 | 330 | 0.0 | 0.0 | 0.00 | 0.00 | 0.00 | 99 | 1017.7 |
| 20260905121057 | 12 | 330 | 0.0 | 0.0 | 0.00 | 0.00 | 0.00 | 99 | 1017.7 |
| 20260905120556 | 12 | 330 | 0.0 | 0.0 | 0.00 | 0.00 | 0.00 | 99 | 1017.6 |
| 20260905120051 | 12 | 330 | 0.0 | 0.0 | 0.00 | 0.00 | 0.00 | 99 | 1017.6 |
| 20260905115550 | 12 | 330 | 0.0 | 0.0 | 0.00 | 0.00 | 0.00 | 99 | 1017.9 |
| 20260905115045 | 12 | 330 | 0.0 | 0.0 | 0.00 | 0.00 | 0.00 | 99 | 1017.8 |
| 20260905114544 | 12 | 330 | 0.0 | 0.0 | 0.00 | 0.00 | 0.00 | 99 | 1017.7 |
| 20260905114043 | 12 | 330 | 0.0 | 0.0 | 0.00 | 0.00 | 0.00 | 99 | 1017.7 |
| 20260905113538 | 12 | 330 | 0.0 | 0.0 | 0.00 | 0.00 | 0.00 | 99 | 1017.8 |
| 20260905113034 | 12 | 330 | 0.0 | 0.0 | 0.00 | 0.00 | 0.00 | 99 | 1017.8 |
| 20260905112529 | 12 | 330 | 0.0 | 0.0 | 0.00 | 0.00 | 0.00 | 99 | 1017.6 |
| 20260905112024 | 12 | 330 | 0.0 | 0.0 | 0.00 | 0.00 | 0.00 | 99 | 1017.6 |
| 20260905111519 | 12 | 330 | 0.0 | 0.0 | 0.00 | 0.00 | 0.00 | 99 | 1017.7 |
| 20260905111018 | 12 | 330 | 0.0 | 0.0 | 0.00 | 0.00 | 0.00 | 99 | 1017.5 |
| 20260905110518 | 12 | 330 | 0.0 | 0.0 | 0.00 | 0.00 | 0.00 | 99 | 1017.5 |
| 20260905110013 | 11 | 330 | 0.0 | 0.0 | 0.00 | 0.00 | 0.00 | 99 | 1017.6 |
| 20260905105507 | 11 | 330 | 0.0 | 0.0 | 0.00 | 0.00 | 0.00 | 99 | 1017.5 |
| 20260905105006 | 11 | 330 | 0.0 | 0.0 | 0.00 | 0.00 | 0.00 | 99 | 1017.7 |
| 20260905104503 | 11 | 330 | 0.0 | 0.0 | 0.00 | 0.00 | 0.00 | 99 | 1017.8 |
| 20260905103957 | 11 | 330 | 0.0 | 0.0 | 0.00 | 0.00 | 0.00 | 99 | 1017.6 |
| 20260905103452 | 12 | 330 | 0.0 | 0.0 | 0.00 | 0.00 | 0.00 | 99 | 1017.7 |
| 20260905102948 | 12 | 330 | 0.0 | 0.0 | 0.00 | 0.00 | 0.00 | 99 | 1017.7 |
| 20260905102444 | 12 | 330 | 0.0 | 0.0 | 0.00 | 0.00 | 0.00 | 99 | 1017.7 |
| 20260905101939 | 12 | 330 | 0.0 | 0.0 | 0.00 | 0.00 | 0.00 | 99 | 1017.9 |
| 20260905101438 | 12 | 330 | 0.0 | 0.0 | 0.00 | 0.00 | 0.00 | 99 | 1017.7 |
| 20260905100937 | 12 | 330 | 0.0 | 0.0 | 0.00 | 0.00 | 0.00 | 99 | 1017.8 |
| 20260905100433 | 12 | 330 | 0.0 | 0.0 | 0.00 | 0.00 | 0.00 | 99 | 1017.7 |
| 20260905095932 | 12 | 330 | 0.0 | 0.0 | 0.00 | 0.00 | 0.00 | 99 | 1017.7 |
| 20260905095432 | 12 | 330 | 0.0 | 0.0 | 0.00 | 0.00 | 0.00 | 99 | 1017.9 |
| 20260905094927 | 12 | 330 | 0.0 | 0.0 | 0.00 | 0.00 | 0.00 | 99 | 1017.8 |
| 20260905094423 | 12 | 330 | 0.0 | 0.0 | 0.00 | 0.00 | 0.00 | 99 | 1017.7 |
| 20260905093922 | 12 | 330 | 0.0 | 0.0 | 0.00 | 0.00 | 0.00 | 99 | 1017.8 |
| 20260905093418 | 12 | 330 | 0.0 | 0.0 | 0.00 | 0.00 | 0.00 | 99 | 1017.7 |
| 20260905092913 | 12 | 330 | 0.0 | 0.0 | 0.00 | 0.00 | 0.00 | 99 | 1017.4 |
| 20260905092408 | 12 | 330 | 0.0 | 0.0 | 0.00 | 0.00 | 0.00 | 99 | 1017.6 |
| 20260905091903 | 12 | 330 | 0.0 | 0.0 | 0.00 | 0.00 | 0.00 | 99 | 1017.6 |
| 20260905091403 | 12 | 330 | 0.0 | 0.0 | 0.00 | 0.00 | 0.00 | 99 | 1017.6 |
| 20260905090902 | 12 | 330 | 0.0 | 0.0 | 0.00 | 0.00 | 0.00 | 99 | 1017.5 |
| 20260905090358 | 12 | 330 | 0.0 | 0.0 | 0.00 | 0.00 | 0.00 | 99 | 1017.5 |
| 20260905085856 | 12 | 330 | 0.0 | 0.0 | 0.00 | 0.00 | 0.00 | 99 | 1017.6 |
| 20260905085351 | 12 | 330 | 0.0 | 0.0 | 0.00 | 0.00 | 0.00 | 99 | 1017.6 |
| 20260905084848 | 12 | 330 | 0.0 | 0.0 | 0.00 | 0.00 | 0.00 | 99 | 1017.5 |
| 20260905084346 | 12 | 330 | 0.0 | 0.0 | 0.00 | 0.00 | 0.00 | 99 | 1017.4 |
| 20260905083841 | 12 | 330 | 0.0 | 0.0 | 0.00 | 0.00 | 0.00 | 99 | 1017.4 |
| 20260905083337 | 12 | 330 | 0.0 | 0.0 | 0.00 | 0.00 | 0.00 | 99 | 1017.4 |
| 20260905082832 | 12 | 330 | 0.0 | 0.0 | 0.00 | 0.00 | 0.00 | 99 | 1017.4 |
| 20260905082328 | 12 | 330 | 0.0 | 0.0 | 0.00 | 0.00 | 0.00 | 99 | 1017.4 |
| 20260905081823 | 12 | 330 | 0.0 | 0.0 | 0.00 | 0.00 | 0.00 | 99 | 1017.3 |
| 20260905081318 | 12 | 330 | 0.0 | 0.0 | 0.00 | 0.00 | 0.00 | 99 | 1017.4 |
| 20260905080817 | 12 | 330 | 0.0 | 0.0 | 0.00 | 0.00 | 0.00 | 99 | 1017.5 |
| 20260905080312 | 12 | 330 | 0.0 | 0.0 | 0.00 | 0.00 | 0.00 | 99 | 1017.3 |
| 20260905075811 | 12 | 330 | 0.0 | 0.0 | 0.00 | 0.00 | 0.00 | 99 | 1017.4 |
| 20260905075311 | 12 | 330 | 0.0 | 0.0 | 0.00 | 0.00 | 0.00 | 99 | 1017.3 |
| 20260905074809 | 12 | 330 | 0.0 | 0.0 | 0.00 | 0.00 | 0.00 | 99 | 1017.4 |
| 20260905074306 | 12 | 330 | 0.0 | 0.0 | 0.00 | 0.00 | 0.00 | 99 | 1017.0 |
| 20260905073801 | 12 | 330 | 0.0 | 0.0 | 0.00 | 0.00 | 0.00 | 99 | 1017.3 |
| 20260905073256 | 12 | 330 | 0.0 | 0.0 | 0.00 | 0.00 | 0.00 | 99 | 1017.4 |
| 20260905072756 | 12 | 330 | 0.0 | 0.0 | 0.00 | 0.00 | 0.00 | 99 | 1017.4 |
| 20260905072251 | 12 | 330 | 0.0 | 0.0 | 0.00 | 0.00 | 0.00 | 99 | 1017.3 |
| 20260905071748 | 12 | 330 | 0.0 | 0.0 | 0.00 | 0.00 | 0.00 | 99 | 1017.2 |
| 20260905071243 | 12 | 330 | 0.0 | 0.0 | 0.00 | 0.00 | 0.00 | 99 | 1017.4 |
| 20260905070738 | 12 | 330 | 0.0 | 0.0 | 0.00 | 0.00 | 0.00 | 99 | 1017.2 |
| 20260905070235 | 12 | 330 | 0.0 | 0.0 | 0.00 | 0.00 | 0.00 | 99 | 1017.1 |
| 20260905065733 | 12 | 330 | 0.0 | 0.0 | 0.00 | 0.53 | 0.53 | 99 | 1017.2 |
| 20260905065227 | 12 | 330 | 0.0 | 0.0 | 0.00 | 0.53 | 0.53 | 99 | 1016.9 |
| 20260905064722 | 12 | 330 | 0.0 | 0.0 | 0.00 | 0.53 | 0.53 | 99 | 1016.8 |
| 20260905064218 | 12 | 334 | 0.0 | 0.0 | 0.00 | 0.53 | 0.53 | 99 | 1016.9 |
| 20260905063716 | 12 | 334 | 0.0 | 0.0 | 0.00 | 0.53 | 0.53 | 99 | 1017.0 |
| 20260905063213 | 12 | 332 | 0.0 | 0.0 | 0.00 | 0.53 | 0.53 | 99 | 1016.7 |
| 20260905062708 | 12 | 332 | 0.0 | 0.0 | 0.00 | 0.53 | 0.53 | 99 | 1016.9 |
| 20260905062208 | 12 | 332 | 0.0 | 0.0 | 0.00 | 0.53 | 0.53 | 99 | 1016.8 |
| 20260905061702 | 12 | 332 | 0.0 | 0.0 | 0.00 | 0.53 | 0.53 | 99 | 1016.7 |
| 20260905061156 | 12 | 332 | 0.0 | 0.0 | 0.00 | 0.53 | 0.53 | 99 | 1016.7 |
| 20260905060652 | 12 | 332 | 0.0 | 0.0 | 0.00 | 0.53 | 0.53 | 99 | 1016.4 |
| 20260905060148 | 12 | 332 | 0.0 | 0.0 | 0.00 | 0.53 | 0.53 | 99 | 1016.5 |
| 20260905055646 | 12 | 332 | 0.0 | 0.0 | 0.00 | 0.53 | 0.53 | 99 | 1016.5 |
| 20260905055142 | 12 | 332 | 0.0 | 0.0 | 0.00 | 0.53 | 0.53 | 99 | 1016.6 |
| 20260905054637 | 12 | 332 | 0.0 | 0.0 | 0.00 | 0.53 | 0.53 | 99 | 1016.7 |
| 20260905054133 | 12 | 332 | 0.0 | 0.0 | 0.00 | 0.53 | 0.53 | 99 | 1016.6 |
| 20260905053633 | 12 | 332 | 0.0 | 0.0 | 0.00 | 0.53 | 0.53 | 99 | 1016.8 |
| 20260905053128 | 12 | 332 | 0.0 | 0.0 | 0.00 | 0.53 | 0.53 | 99 | 1016.6 |
| 20260905052627 | 12 | 332 | 0.0 | 0.0 | 0.00 | 0.53 | 0.53 | 99 | 1016.9 |
| 20260905052122 | 12 | 332 | 0.0 | 0.0 | 0.00 | 0.53 | 0.53 | 99 | 1016.9 |
| 20260905051617 | 12 | 332 | 0.0 | 0.0 | 0.00 | 0.53 | 0.53 | 99 | 1016.7 |
| 20260905051114 | 12 | 332 | 0.0 | 0.0 | 0.00 | 0.53 | 0.53 | 99 | 1016.9 |
| 20260905050610 | 12 | 332 | 0.0 | 0.0 | 0.00 | 0.53 | 0.53 | 99 | 1016.6 |
| 20260905050106 | 12 | 332 | 0.0 | 0.0 | 0.00 | 0.53 | 0.53 | 99 | 1016.6 |
| 20260905045601 | 12 | 332 | 0.0 | 0.0 | 0.00 | 0.53 | 0.53 | 99 | 1016.6 |
| 20260905045056 | 12 | 332 | 0.0 | 0.0 | 0.00 | 0.53 | 0.53 | 99 | 1016.4 |
| 20260905044556 | 12 | 332 | 0.0 | 0.0 | 0.00 | 0.53 | 0.53 | 99 | 1016.5 |
| 20260905044050 | 12 | 332 | 0.0 | 0.0 | 0.00 | 0.53 | 0.53 | 99 | 1016.6 |
| 20260905043549 | 12 | 332 | 0.0 | 0.0 | 0.00 | 0.53 | 0.53 | 99 | 1016.4 |
| 20260905043045 | 12 | 332 | 0.0 | 0.0 | 0.00 | 0.53 | 0.53 | 99 | 1016.6 |
| 20260905042544 | 12 | 332 | 0.0 | 0.0 | 0.00 | 0.53 | 0.53 | 99 | 1016.4 |
| 20260905042039 | 12 | 332 | 0.0 | 0.0 | 0.00 | 0.53 | 0.53 | 99 | 1016.2 |
| 20260905041534 | 12 | 332 | 0.0 | 0.0 | 0.00 | 0.53 | 0.53 | 99 | 1016.6 |
| 20260905041030 | 12 | 332 | 0.0 | 0.0 | 0.00 | 0.53 | 0.53 | 99 | 1016.5 |
| 20260905040529 | 12 | 332 | 0.0 | 0.0 | 0.00 | 0.53 | 0.53 | 99 | 1016.3 |
| 20260905040028 | 12 | 332 | 0.0 | 0.0 | 0.00 | 0.53 | 0.53 | 99 | 1016.2 |
| 20260905035523 | 12 | 332 | 0.0 | 0.0 | 0.00 | 0.53 | 0.53 | 99 | 1016.2 |
| 20260905035020 | 12 | 332 | 0.0 | 0.0 | 0.00 | 0.53 | 0.53 | 99 | 1016.3 |
| 20260905034516 | 12 | 332 | 0.0 | 0.0 | 0.00 | 0.53 | 0.53 | 99 | 1016.0 |
| 20260905034015 | 12 | 332 | 0.0 | 0.0 | 0.00 | 0.53 | 0.53 | 99 | 1016.1 |
| 20260905033509 | 12 | 332 | 0.0 | 0.0 | 0.00 | 0.53 | 0.53 | 99 | 1016.1 |
| 20260905033005 | 13 | 332 | 0.0 | 0.0 | 0.00 | 0.53 | 0.53 | 99 | 1016.1 |
| 20260905032500 | 13 | 332 | 0.0 | 0.0 | 0.00 | 0.53 | 0.53 | 99 | 1016.3 |
| 20260905031954 | 13 | 332 | 0.0 | 0.0 | 0.00 | 0.53 | 0.53 | 99 | 1016.0 |
| 20260905031450 | 13 | 332 | 0.0 | 0.0 | 0.00 | 0.53 | 0.53 | 99 | 1016.0 |
| 20260905030945 | 13 | 332 | 0.0 | 0.0 | 0.00 | 0.53 | 0.53 | 99 | 1016.0 |
| 20260905030441 | 13 | 332 | 0.0 | 0.0 | 0.00 | 0.53 | 0.53 | 99 | 1015.8 |
| 20260905025939 | 13 | 332 | 0.0 | 0.0 | 0.00 | 0.53 | 0.53 | 99 | 1015.8 |
| 20260905025435 | 13 | 332 | 0.0 | 0.0 | 0.00 | 0.53 | 0.53 | 99 | 1016.0 |
| 20260905024932 | 13 | 332 | 0.0 | 0.0 | 0.00 | 0.53 | 0.53 | 99 | 1015.9 |
| 20260905024432 | 13 | 332 | 0.0 | 0.0 | 0.00 | 0.53 | 0.53 | 98 | 1015.7 |
| 20260905023927 | 13 | 332 | 0.0 | 0.0 | 0.00 | 0.53 | 0.53 | 98 | 1015.8 |
| 20260905023422 | 14 | 332 | 0.0 | 0.0 | 0.00 | 0.53 | 0.53 | 97 | 1015.8 |
| 20260905022921 | 14 | 332 | 0.0 | 0.0 | 0.00 | 0.53 | 0.53 | 96 | 1015.8 |
| 20260905022417 | 14 | 332 | 0.0 | 0.0 | 0.00 | 0.53 | 0.53 | 96 | 1015.9 |
| 20260905021912 | 15 | 332 | 0.0 | 0.0 | 0.00 | 0.53 | 0.53 | 96 | 1015.9 |
| 20260905021412 | 15 | 332 | 0.0 | 0.0 | 0.00 | 0.53 | 0.53 | 95 | 1015.7 |
| 20260905020907 | 15 | 332 | 0.0 | 0.0 | 0.00 | 0.53 | 0.53 | 95 | 1015.8 |
| 20260905020407 | 15 | 332 | 0.0 | 0.0 | 0.00 | 0.53 | 0.53 | 94 | 1015.9 |
| 20260905015906 | 15 | 332 | 0.0 | 0.0 | 0.00 | 0.53 | 0.53 | 94 | 1015.7 |
| 20260905015405 | 15 | 332 | 0.0 | 0.0 | 0.00 | 0.53 | 0.53 | 94 | 1015.7 |
| 20260905014904 | 15 | 285 | 0.0 | 0.0 | 0.00 | 0.53 | 0.53 | 94 | 1015.5 |
| 20260905014400 | 15 | 299 | 0.0 | 0.0 | 0.00 | 0.53 | 0.53 | 94 | 1015.4 |
| 20260905013855 | 15 | 299 | 0.0 | 0.0 | 0.00 | 0.53 | 0.53 | 95 | 1015.4 |
| 20260905013351 | 15 | 299 | 0.0 | 0.0 | 0.00 | 0.53 | 0.53 | 95 | 1015.5 |
| 20260905012846 | 15 | 299 | 0.0 | 0.0 | 0.00 | 0.53 | 0.53 | 95 | 1015.3 |
| 20260905012341 | 15 | 299 | 0.0 | 0.0 | 0.00 | 0.53 | 0.53 | 96 | 1015.4 |
| 20260905011838 | 15 | 299 | 0.0 | 0.0 | 0.00 | 0.53 | 0.53 | 96 | 1015.3 |
| 20260905011334 | 15 | 299 | 0.0 | 0.0 | 0.00 | 0.53 | 0.53 | 95 | 1015.2 |
| 20260905010829 | 15 | 299 | 0.0 | 0.0 | 0.00 | 0.53 | 0.53 | 95 | 1015.4 |
| 20260905010324 | 15 | 299 | 0.0 | 0.0 | 0.00 | 0.53 | 0.53 | 96 | 1015.2 |
| 20260905005820 | 15 | 299 | 0.0 | 0.0 | 0.00 | 0.53 | 0.53 | 96 | 1015.1 |
| 20260905005316 | 15 | 299 | 0.0 | 0.0 | 0.00 | 0.53 | 0.53 | 95 | 1015.2 |
| 20260905004810 | 15 | 298 | 0.0 | 0.0 | 0.00 | 0.53 | 0.53 | 95 | 1015.2 |
| 20260905004305 | 15 | 298 | 0.0 | 0.0 | 0.00 | 0.53 | 0.53 | 95 | 1015.1 |
| 20260905003800 | 15 | 298 | 0.0 | 0.0 | 0.00 | 0.53 | 0.53 | 95 | 1015.2 |
| 20260905003256 | 16 | 300 | 0.0 | 0.0 | 0.00 | 0.53 | 0.53 | 94 | 1015.1 |
| 20260905002752 | 16 | 299 | 0.0 | 0.0 | 0.00 | 0.53 | 0.53 | 94 | 1015.1 |
| 20260905002251 | 16 | 316 | 0.0 | 0.0 | 0.00 | 0.53 | 0.53 | 95 | 1015.2 |
| 20260905001746 | 16 | 316 | 0.0 | 0.0 | 0.00 | 0.53 | 0.53 | 95 | 1015.3 |
| 20260905001245 | 16 | 316 | 0.0 | 0.0 | 0.00 | 0.53 | 0.53 | 94 | 1014.9 |
| 20260905000741 | 16 | 316 | 0.0 | 0.0 | 0.00 | 0.53 | 0.53 | 94 | 1015.2 |
| 20260905000237 | 16 | 316 | 0.0 | 0.0 | 0.00 | 0.53 | 0.53 | 93 | 1015.0 |
| 20260904235732 | 16 | 316 | 0.0 | 0.0 | 0.00 | 0.53 | 0.53 | 93 | 1015.3 |
| 20260904235226 | 16 | 316 | 0.0 | 0.0 | 0.00 | 0.53 | 0.53 | 92 | 1015.2 |
| 20260904234721 | 16 | 316 | 0.0 | 0.0 | 0.00 | 0.53 | 0.53 | 92 | 1015.2 |
| 20260904234216 | 16 | 316 | 0.0 | 0.0 | 0.00 | 0.53 | 0.53 | 94 | 1015.2 |
| 20260904233712 | 16 | 303 | 0.0 | 0.0 | 0.00 | 0.53 | 0.53 | 93 | 1015.1 |
| 20260904233208 | 16 | 303 | 0.0 | 0.0 | 0.00 | 0.53 | 0.53 | 93 | 1015.5 |
| 20260904232705 | 16 | 323 | 0.0 | 0.0 | 0.00 | 0.53 | 0.53 | 94 | 1015.1 |
| 20260904232201 | 16 | 347 | 0.0 | 1.6 | 0.00 | 0.53 | 0.53 | 94 | 1015.1 |
| 20260904231656 | 16 | 332 | 0.0 | 0.0 | 0.00 | 0.53 | 0.53 | 95 | 1015.0 |
| 20260904231151 | 15 | 315 | 0.0 | 0.0 | 0.00 | 0.53 | 0.53 | 97 | 1014.9 |
| 20260904230651 | 15 | 315 | 0.0 | 0.0 | 0.00 | 0.53 | 0.53 | 98 | 1014.9 |
| 20260904230146 | 15 | 332 | 0.0 | 0.0 | 0.00 | 0.53 | 0.53 | 99 | 1014.7 |
| 20260904225644 | 15 | 302 | 0.0 | 0.0 | 0.00 | 0.53 | 0.53 | 99 | 1014.9 |
| 20260904225139 | 14 | 331 | 0.0 | 1.6 | 0.00 | 0.53 | 0.53 | 99 | 1014.9 |